Back to catalog

CZ-6A DEB

AlivePO
NORAD 64635·DEBRIS·🇨🇳 China

Launched Aug 6, 2024 from Taiyuan Satellite Launch Center

Loading…

Next Passes (next 24 hours)

TLE

FreshSource: Space-Track

Epoch: Sep 14, 2026, 07:56 UTC

1 64635U 24140ADZ 26257.33090208  .00003390  00000-0  62492-3 0  9993
2 64635  89.1112 270.2306 0095705 301.8354  57.3568 14.62386865105906

Track CZ-6A DEB in real time with AllMySat

Download on the App Store